Hourly Data Report for May 27, 2004

TORONTO CITY
ONTARIO

43°40'00.000" N
79°24'00.000" W
112.50 m
6158355
71508
XTO

Download Data

Hourly Data (May 2004)
Hourly Data Report for May 27, 2004
TIME
LST
Temp Definition
°C
Dew Point Definition
°C
Rel Hum Definition
%
Precip. Amount Definition
mm

Wind Dir Definition
10's deg

Wind Spd Definition
km/h
Visibility Definition
km
Stn Press Definition
kPa
Hmdx Definition


Wind Chill Definition


Weather Definition


00:00 11.4 6.8 73   LegendMM LegendMM LegendMM 99.42     LegendNANA
01:00 11.6 6.4 70   LegendMM LegendMM LegendMM 99.40     LegendNANA
02:00 10.9 6.4 74   LegendMM LegendMM LegendMM 99.39     LegendNANA
03:00 10.2 7.1 81   LegendMM LegendMM LegendMM 99.39     LegendNANA
04:00 9.3 7.4 88   LegendMM LegendMM LegendMM 99.42     LegendNANA
05:00 9.0 7.7 92   LegendMM LegendMM LegendMM 99.42     LegendNANA
06:00 10.4 7.6 83   LegendMM LegendMM LegendMM 99.42     LegendNANA
07:00 13.2 7.9 70   LegendMM LegendMM LegendMM 99.45     LegendNANA
08:00 14.6 6.8 59   LegendMM LegendMM LegendMM 99.44     LegendNANA
09:00 15.3 7.7 60   LegendMM LegendMM LegendMM 99.34     LegendNANA
10:00 16.1 6.8 54   LegendMM LegendMM LegendMM 99.28     LegendNANA
11:00 16.2 4.5 46   LegendMM LegendMM LegendMM 99.23     LegendNANA
12:00 16.4 8.1 58   LegendMM LegendMM LegendMM 99.16     LegendNANA
13:00 17.1 8.7 58   LegendMM LegendMM LegendMM 99.08     LegendNANA
14:00 15.1 9.0 67   LegendMM LegendMM LegendMM 98.99     LegendNANA
15:00 15.3 9.7 69   LegendMM LegendMM LegendMM 98.97     LegendNANA
16:00 14.6 9.5 71   LegendMM LegendMM LegendMM 98.89     LegendNANA
17:00 13.8 10.6 81   LegendMM LegendMM LegendMM 98.83     LegendNANA
18:00 14.7 10.6 76   LegendMM LegendMM LegendMM 98.78     LegendNANA
19:00 14.7 10.5 76   LegendMM LegendMM LegendMM 98.82     LegendNANA
20:00 15.3 11.4 78   LegendMM LegendMM LegendMM 98.74     LegendNANA
21:00 15.0 12.6 86   LegendMM LegendMM LegendMM 98.66     LegendNANA
22:00 13.9 12.4 91   LegendMM LegendMM LegendMM 98.70     LegendNANA
23:00 14.4 13.0 91   LegendMM LegendMM LegendMM 98.67     LegendNANA

Notes on Data Quality.

Legend

  • E = Estimated
  • M = Missing
  • NA = Not Available*
  • [empty] = Indicates an unobserved value
Date modified: